[[{"header":{"parameterUnit":"m.s-1","parameterCategory":1,"la1":30.2991,"la2":30.254,"lo1":-89.0895,"lo2":-89.0444,"dy":0.0017,"dx":0.0017,"nx":28,"ny":28,"refTime":"2025-03-08T03:00:00:Z","depth":0,"parameterNumber":2,"parameterNumberName":"U-component_of_WINDS"},"data":[0,0,0,0,0,0,0,0,0,0,0,0,0,0,0,0,0,0,0,0,0,0,0,0,0,0,0,0,0,0,0,0,0,0,0,0,0,0,0,0,0,0,0,0,0,0,0,0,0,0,0,0,0,0,0,0,0,0,-1.7769,-1.7769,0,-1.7778,-1.7778,-1.7778,-1.7753,-1.7752,-1.7752,-1.7751,-1.7761,-1.7761,-1.7762,0,0,0,0,0,0,0,0,0,0,0,0,0,-1.773,-1.773,-1.7769,-1.7769,-1.7769,-1.7778,-1.7778,-1.7778,-1.7753,-1.7752,-1.7751,-1.7751,-1.776,-1.7761,-1.7763,0,0,0,0,0,0,0,0,0,0,0,0,0,-1.7743,-1.7731,-1.7769,-1.7758,-1.7757,-1.7777,-1.7778,-1.7778,-1.7753,-1.7752,-1.7751,-1.775,-1.776,-1.7761,-1.7763,-1.7795,0,0,-1.7767,-1.7768,0,0,0,0,0,0,0,0,-1.7743,-1.7745,-1.7759,-1.7758,-1.7757,-1.7763,-1.7767,-1.7783,-1.7754,-1.7755,-1.7751,-1.775,-1.7762,-1.7763,-1.7768,-1.7795,-1.7796,-1.7767,-1.7768,-1.7769,-1.7769,0,0,0,0,0,0,0,-1.7742,-1.7744,-1.7772,-1.7759,-1.7758,-1.7752,-1.7753,-1.777,-1.7765,-1.7755,-1.7753,-1.7754,-1.7762,-1.7766,-1.7768,-1.7796,-1.7767,-1.7769,-1.7769,-1.777,-1.7848,-1.7849,0,0,0,0,0,0,-1.7742,-1.7744,-1.7772,-1.7772,-1.7747,-1.7754,-1.7754,-1.7762,-1.7765,-1.7764,-1.7755,-1.7753,-1.7764,-1.7766,-1.7768,-1.7804,-1.7769,-1.777,-1.7771,-1.7846,-1.7848,-1.7849,0,0,0,0,0,0,-1.7741,-1.7745,-1.7771,-1.7758,-1.776,-1.7756,-1.7765,-1.7763,-1.7768,-1.7765,-1.7764,-1.7761,-1.7764,-1.7766,-1.7788,-1.7804,-1.7771,-1.7772,-1.7845,-1.7847,-1.7849,-1.7877,0,0,0,0,0,0,-1.774,-1.7745,-1.7757,-1.7758,-1.7761,-1.7791,-1.7766,-1.7764,-1.777,-1.7768,-1.777,-1.777,-1.7763,-1.7786,-1.7789,-1.7805,-1.7773,-1.7844,-1.7846,-1.7848,-1.7875,-1.788,-1.7884,0,0,0,0,0,-1.7739,-1.7765,-1.7758,-1.7761,-1.7777,-1.7792,-1.7794,-1.7786,-1.7772,-1.7784,-1.7782,-1.7769,-1.7802,-1.7788,-1.7792,-1.7809,-1.7842,-1.7845,-1.7848,-1.7873,-1.7879,-1.7884,0,0,0,0,0,0,-1.7767,-1.7765,-1.7757,-1.7785,-1.7789,-1.7788,-1.7803,-1.7793,-1.7801,-1.7798,-1.7788,-1.7789,-1.7812,-1.7813,-1.7797,-1.7839,-1.782,-1.7823,-1.7837,-1.7843,-1.7848,-1.7847,-1.7774,0,0,0,0,0,-1.7777,-1.779,-1.7787,-1.7812,-1.7814,-1.7808,-1.7815,-1.7808,-1.7812,-1.7814,-1.7813,-1.7818,-1.7829,-1.7836,-1.7846,-1.7875,-1.7874,-1.7888,-1.7893,-1.7897,-1.79,-1.7913,-1.7919,-1.7858,-1.7858,-1.7858,0,0,-1.7796,-1.7797,-1.7806,-1.7817,-1.782,-1.7833,-1.781,-1.7825,-1.7835,-1.7816,-1.7836,-1.7836,-1.784,-1.7865,-1.7876,-1.7866,-1.7916,-1.79,-1.7903,-1.7904,-1.7917,-1.7922,-1.7927,-1.786,-1.7859,-1.7859,0,0,-1.7838,-1.7841,-1.786,-1.7863,-1.7866,-1.7862,-1.7867,-1.7868,-1.7866,-1.7886,-1.7872,-1.7883,-1.7903,-1.7906,-1.791,-1.7951,-1.7939,-1.7955,-1.7979,-1.7992,-1.7997,-1.8001,-1.8014,-1.8019,-1.7958,-1.7958,-1.7958,0,-1.7862,-1.7881,-1.7872,-1.7887,-1.7892,-1.7875,-1.7895,-1.7898,-1.7905,-1.7908,-1.7897,-1.792,-1.7922,-1.7946,-1.7956,-1.7961,-1.7965,-1.7954,-1.7997,-1.8001,-1.8005,-1.8017,-1.8022,-1.796,-1.796,-1.7959,-1.7959,0,-1.791,-1.7923,-1.7939,-1.7944,-1.7951,-1.7969,-1.7961,-1.7969,-1.7962,-1.7958,-1.7978,-1.7979,-1.7988,-1.7994,-1.7987,-1.8017,-1.8011,-1.7999,-1.7979,-1.8012,-1.8024,-1.8029,-1.7962,-1.7962,-1.7961,-1.7961,0,0,-1.797,-1.7969,-1.7975,-1.7977,-1.7979,-1.7989,-1.8005,-1.8014,-1.802,-1.8025,-1.8038,-1.8054,-1.8042,-1.8047,-1.804,-1.8052,-1.8083,-1.8038,-1.8038,-1.8045,-1.8114,-1.8122,-1.8128,-1.8075,-1.8076,-1.8077,-1.8113,0,-1.801,-1.8037,-1.8028,-1.8056,-1.8067,-1.8051,-1.8065,-1.8067,-1.8065,-1.8074,-1.8071,-1.8081,-1.8066,-1.8068,-1.8079,-1.8077,-1.8096,-1.8074,-1.8086,-1.8086,-1.8084,-1.8134,-1.8143,-1.8177,-1.8117,-1.8118,-1.8119,0,-1.8061,-1.8066,-1.8095,-1.8093,-1.8098,-1.811,-1.8116,-1.8126,-1.8128,-1.8125,-1.8129,-1.8119,-1.8135,-1.8116,-1.8135,-1.8121,-1.8125,-1.8124,-1.8125,-1.8125,-1.8104,-1.8134,-1.8187,-1.8192,-1.8126,-1.8125,-1.8125,0,-1.81,-1.8115,-1.8133,-1.8136,-1.8135,-1.8144,-1.8144,-1.8145,-1.815,-1.8155,-1.8158,-1.8166,-1.8169,-1.8175,-1.8167,-1.8154,-1.8188,-1.8169,-1.8185,-1.8185,-1.8192,-1.8191,-1.8246,-1.8197,-1.8197,-1.8197,-1.8197,0,-1.8145,-1.8162,-1.8151,-1.8162,-1.8181,-1.817,-1.8189,-1.8187,-1.8188,-1.8198,-1.8185,-1.8195,-1.8184,-1.8193,-1.8187,-1.8204,-1.8206,-1.8203,-1.8201,-1.8204,-1.8204,-1.8206,-1.8202,-1.8198,-1.8198,-1.8198,-1.8198,0,-1.8191,-1.8184,-1.8203,-1.82,-1.82,-1.8214,-1.8211,-1.8221,-1.8217,-1.823,-1.8232,-1.8226,-1.8235,-1.8228,-1.8237,-1.8233,-1.8254,-1.825,-1.8254,-1.8252,-1.8268,-1.8266,-1.8324,-1.8331,-1.8279,-1.828,-1.828,0,-1.822,-1.8233,-1.8231,-1.8236,-1.8237,-1.8246,-1.8251,-1.8241,-1.8246,-1.8249,-1.8258,-1.8266,-1.8272,-1.8288,-1.8284,-1.829,-1.8285,-1.8305,-1.8286,-1.8287,-1.8283,-1.8282,-1.8282,-1.8308,-1.8309,-1.831,-1.831,0,-1.8271,-1.8266,-1.8273,-1.8279,-1.8284,-1.8288,-1.8291,-1.8297,-1.8286,-1.8293,-1.8302,-1.8306,-1.8315,-1.8323,-1.8328,-1.8328,-1.8317,-1.8316,-1.832,-1.8322,-1.8323,-1.8321,-1.8262,-1.8315,-1.8314,-1.8314,-1.8313,-1.8313,-1.8308,-1.8318,-1.8318,-1.8326,-1.8326,-1.8329,-1.8338,-1.8334,-1.8341,-1.8347,-1.8341,-1.8351,-1.8352,-1.8357,-1.8358,-1.8366,-1.8358,-1.8364,-1.8365,-1.8366,-1.8368,-1.8322,-1.8367,-1.8367,-1.8367,-1.8367,-1.8367,0,-1.8357,-1.8356,-1.8363,-1.8367,-1.8372,-1.8361,-1.8364,-1.8369,-1.8378,-1.838,-1.8385,-1.8394,-1.8402,-1.8398,-1.8404,-1.841,-1.8405,-1.8412,-1.8411,-1.8411,-1.8376,-1.8371,-1.8416,-1.8416,-1.8416,-1.8416,-1.8416,-1.8416,-1.8383,-1.8399,-1.8394,-1.8409,-1.8408,-1.8417,-1.8419,-1.8421,-1.8422,-1.8433,-1.8438,-1.8435,-1.8434,-1.844,-1.8445,-1.8444,-1.8446,-1.8454,-1.8451,-1.8418,-1.8413,-1.8409,-1.8404,-1.8455,-1.8455,-1.8485,-1.8485,-1.8486]},{"header":{"parameterUnit":"m.s-1","parameterCategory":1,"la1":30.2991,"la2":30.254,"lo1":-89.0895,"lo2":-89.0444,"dy":0.0017,"dx":0.0017,"nx":28,"ny":28,"refTime":"2025-03-08T03:00:00:Z","depth":0,"parameterNumber":3,"parameterNumberName":"V-component_of_WINDS"},"data":[0,0,0,0,0,0,0,0,0,0,0,0,0,0,0,0,0,0,0,0,0,0,0,0,0,0,0,0,0,0,0,0,0,0,0,0,0,0,0,0,0,0,0,0,0,0,0,0,0,0,0,0,0,0,0,0,0,0,-0.3313,-0.3312,0,-0.3187,-0.3186,-0.3184,-0.3133,-0.3133,-0.3133,-0.3134,-0.3002,-0.2998,-0.2995,0,0,0,0,0,0,0,0,0,0,0,0,0,-0.3506,-0.3503,-0.3313,-0.3312,-0.331,-0.3188,-0.3186,-0.3184,-0.3133,-0.3133,-0.3133,-0.3134,-0.3003,-0.2999,-0.2994,0,0,0,0,0,0,0,0,0,0,0,0,0,-0.3405,-0.3502,-0.3314,-0.327,-0.3265,-0.3188,-0.3186,-0.3184,-0.3133,-0.3133,-0.3134,-0.3134,-0.3005,-0.2999,-0.2994,-0.295,0,0,-0.2976,-0.2974,0,0,0,0,0,0,0,0,-0.3411,-0.3398,-0.3278,-0.3273,-0.3267,-0.3176,-0.3205,-0.3105,-0.3133,-0.3183,-0.3134,-0.3134,-0.306,-0.3049,-0.3025,-0.2944,-0.2939,-0.2976,-0.2973,-0.297,-0.2969,0,0,0,0,0,0,0,-0.3418,-0.3403,-0.3263,-0.3276,-0.3269,-0.3255,-0.3242,-0.3186,-0.312,-0.3178,-0.3174,-0.316,-0.3057,-0.303,-0.3021,-0.2937,-0.2976,-0.2971,-0.2968,-0.2965,-0.2812,-0.2811,0,0,0,0,0,0,-0.3433,-0.341,-0.3267,-0.326,-0.3342,-0.3252,-0.3236,-0.3205,-0.3121,-0.3108,-0.316,-0.3158,-0.304,-0.3028,-0.3016,-0.2959,-0.297,-0.2965,-0.2962,-0.2813,-0.2812,-0.2811,0,0,0,0,0,0,-0.3437,-0.3421,-0.3272,-0.3333,-0.3313,-0.3248,-0.3213,-0.3202,-0.3176,-0.3107,-0.3094,-0.3146,-0.304,-0.3024,-0.2967,-0.2953,-0.2962,-0.2957,-0.2814,-0.2813,-0.2812,-0.2844,0,0,0,0,0,0,-0.3443,-0.3422,-0.3406,-0.3333,-0.331,-0.3226,-0.3212,-0.3199,-0.3167,-0.3163,-0.309,-0.3078,-0.3039,-0.2976,-0.2961,-0.2946,-0.2953,-0.2814,-0.2813,-0.2812,-0.2844,-0.2844,-0.2845,0,0,0,0,0,-0.345,-0.342,-0.3406,-0.3389,-0.3289,-0.3225,-0.3212,-0.3168,-0.3166,-0.3148,-0.3103,-0.3081,-0.2958,-0.297,-0.2954,-0.2936,-0.2815,-0.2814,-0.2812,-0.2844,-0.2844,-0.2845,0,0,0,0,0,0,-0.3492,-0.341,-0.3393,-0.3339,-0.329,-0.3217,-0.3193,-0.317,-0.312,-0.3119,-0.3066,-0.3049,-0.2996,-0.296,-0.2976,-0.2889,-0.2884,-0.288,-0.2914,-0.2914,-0.2914,-0.2924,-0.2948,0,0,0,0,0,-0.3495,-0.3452,-0.3382,-0.3341,-0.3317,-0.326,-0.323,-0.3201,-0.3147,-0.3126,-0.3077,-0.3025,-0.2975,-0.2943,-0.2892,-0.2839,-0.2821,-0.2818,-0.2819,-0.282,-0.2816,-0.2783,-0.278,-0.2806,-0.2806,-0.2806,0,0,-0.3501,-0.3451,-0.3426,-0.3348,-0.3306,-0.3261,-0.3242,-0.3196,-0.3161,-0.3118,-0.3061,-0.3024,-0.2962,-0.2906,-0.2879,-0.2875,-0.2805,-0.2818,-0.2819,-0.2814,-0.2781,-0.2779,-0.2777,-0.2805,-0.2805,-0.2805,0,0,-0.3489,-0.3447,-0.3407,-0.3366,-0.3303,-0.3265,-0.3256,-0.3186,-0.316,-0.3102,-0.3068,-0.3026,-0.2941,-0.2898,-0.2865,-0.2835,-0.2811,-0.282,-0.2822,-0.279,-0.2788,-0.2786,-0.2774,-0.2771,-0.2817,-0.2817,-0.2817,0,-0.3503,-0.3435,-0.339,-0.3345,-0.331,-0.327,-0.3229,-0.3191,-0.3115,-0.3092,-0.3088,-0.2979,-0.2935,-0.2868,-0.286,-0.2836,-0.2822,-0.2828,-0.2793,-0.279,-0.2787,-0.2775,-0.2771,-0.2818,-0.2818,-0.2818,-0.2818,0,-0.3456,-0.3409,-0.3384,-0.3312,-0.3275,-0.3232,-0.3179,-0.3147,-0.3121,-0.3083,-0.3023,-0.2968,-0.2906,-0.2888,-0.2861,-0.2816,-0.2815,-0.2803,-0.2797,-0.2787,-0.2774,-0.277,-0.282,-0.2819,-0.2819,-0.2819,0,0,-0.3466,-0.3369,-0.3361,-0.3327,-0.3255,-0.3217,-0.3172,-0.3111,-0.3084,-0.3033,-0.2992,-0.292,-0.2908,-0.2871,-0.2839,-0.2812,-0.279,-0.2802,-0.28,-0.2801,-0.2735,-0.2744,-0.2739,-0.2774,-0.2773,-0.2772,-0.2739,0,-0.3442,-0.3361,-0.3318,-0.3254,-0.3209,-0.317,-0.313,-0.3081,-0.3044,-0.2999,-0.2958,-0.2907,-0.2896,-0.2873,-0.2844,-0.2799,-0.2776,-0.2801,-0.2734,-0.2733,-0.275,-0.2733,-0.2742,-0.2714,-0.2734,-0.2734,-0.2733,0,-0.3404,-0.3354,-0.3285,-0.3217,-0.3197,-0.3162,-0.3102,-0.3061,-0.3003,-0.2978,-0.2936,-0.2905,-0.2854,-0.2853,-0.2781,-0.2799,-0.2769,-0.2743,-0.2741,-0.2732,-0.2732,-0.2722,-0.2704,-0.2699,-0.2725,-0.2726,-0.2726,0,-0.3417,-0.3332,-0.328,-0.3252,-0.3172,-0.3148,-0.3113,-0.3056,-0.3022,-0.2969,-0.2946,-0.2889,-0.2857,-0.2812,-0.2766,-0.2769,-0.2698,-0.2693,-0.2674,-0.2675,-0.266,-0.2661,-0.2636,-0.2643,-0.2644,-0.2644,-0.2644,0,-0.3395,-0.3354,-0.3284,-0.3252,-0.3204,-0.3155,-0.3109,-0.3071,-0.3021,-0.2979,-0.2942,-0.2904,-0.2845,-0.2799,-0.2762,-0.2707,-0.2693,-0.2671,-0.2661,-0.2673,-0.2676,-0.2652,-0.2652,-0.2642,-0.2643,-0.2643,-0.2643,0,-0.3401,-0.3353,-0.3293,-0.3221,-0.3202,-0.317,-0.3109,-0.3075,-0.3036,-0.2984,-0.2969,-0.2907,-0.2851,-0.28,-0.2725,-0.27,-0.2644,-0.2633,-0.2664,-0.2658,-0.2642,-0.2643,-0.2598,-0.2589,-0.2605,-0.2605,-0.2605,0,-0.3389,-0.3357,-0.3282,-0.3252,-0.3218,-0.317,-0.3135,-0.3085,-0.305,-0.2982,-0.2956,-0.2897,-0.2847,-0.2759,-0.2706,-0.2648,-0.2635,-0.2623,-0.2626,-0.2638,-0.2632,-0.2635,-0.263,-0.2623,-0.2623,-0.2623,-0.2623,0,-0.3374,-0.3351,-0.3303,-0.3245,-0.3205,-0.3157,-0.3108,-0.3085,-0.3026,-0.2988,-0.293,-0.2892,-0.2815,-0.2756,-0.2693,-0.2655,-0.2628,-0.2623,-0.2615,-0.2626,-0.2645,-0.2633,-0.2663,-0.2624,-0.2624,-0.2624,-0.2624,-0.2624,-0.3369,-0.3338,-0.328,-0.3227,-0.3185,-0.314,-0.3105,-0.3061,-0.3013,-0.2947,-0.292,-0.2861,-0.2803,-0.2714,-0.2677,-0.2629,-0.2624,-0.2613,-0.261,-0.2608,-0.2609,-0.2654,-0.2617,-0.2617,-0.2617,-0.2617,-0.2617,0,-0.335,-0.3311,-0.3263,-0.3196,-0.3153,-0.3133,-0.3078,-0.3043,-0.2992,-0.294,-0.2892,-0.2825,-0.2767,-0.271,-0.265,-0.2622,-0.2608,-0.2608,-0.2608,-0.26,-0.2618,-0.263,-0.262,-0.262,-0.262,-0.262,-0.262,-0.262,-0.3335,-0.3281,-0.3252,-0.3176,-0.3136,-0.3079,-0.3049,-0.3006,-0.2965,-0.2891,-0.2844,-0.2807,-0.2753,-0.2688,-0.2634,-0.2618,-0.2597,-0.26,-0.2581,-0.2598,-0.2599,-0.2599,-0.261,-0.2596,-0.2596,-0.2566,-0.2566,-0.2566]}]]